Weather History for NW Arkansas Airport, AR

Change the Weather History Date:

Saturday, February 8, 2014

  Actual Average Record
Temperature  
Mean Temperature 28 °F -  
Max Temperature 32 °F - - ()
Min Temperature 23 °F - - ()
Degree Days  
Heating Degree Days 38    
Moisture  
Dew Point 25 °F    
Average Humidity 89    
Maximum Humidity 96    
Minimum Humidity 80    
Precipitation  
Precipitation 0.00 in - - ()
Sea Level Pressure  
Sea Level Pressure 30.14 in    
Wind  
Wind Speed 5 mph (South)    
Max Wind Speed 8 mph    
Max Gust Speed -    
Visibility 6 miles    
Events      
T = Trace of Precipitation, MM = Missing Value Source: NWS Daily Summary

Daily Weather History Graph

Daily Weather History Graph

Search for Another Location

Airport:

Trip Planner

Search our weather history database for the weather conditions in past years. The results will help you decide how hot, cold, wet, or windy it might be!

Date:

Astronomy

Feb. 08, 2014 Rise Set
Actual Time 7:12 AM CST 5:51 PM CST
Civil Twilight 6:45 AM CST 6:17 PM CST
Nautical Twilight 6:15 AM CST 6:48 PM CST
Astronomical Twilight 5:45 AM CST 7:18 PM CST
Moon 12:48 PM CST (2/8) 2:22 AM CST (2/8)
Length of Visible Light 11h 32m
Length of Day
10h 39m
Waxing Gibbous, 69% of the Moon is Illuminated
Feb 8
Waxing Gibbous
Feb 14
Full
Feb 22
Last Quarter
Mar 1
New
Mar 8
First Quarter

Hourly Weather History & Observations

Time (CST) Temp. Windchill Dew Point Humidity Pressure Visibility Wind Dir Wind Speed Gust Speed Precip Events Conditions
12:53 AM 23.0 °F 14.7 °F 19.9 °F 88% 30.22 in 9.0 mi South 6.9 mph - N/A   Overcast
1:23 AM 23.0 °F 18.4 °F 19.4 °F 86% 30.18 in 9.0 mi South 3.5 mph - N/A   Overcast
1:53 AM 23.0 °F 18.4 °F 19.9 °F 88% 30.21 in 9.0 mi South 3.5 mph - N/A   Overcast
2:15 AM 23.0 °F 17.0 °F 19.4 °F 86% 30.16 in 6.0 mi South 4.6 mph - N/A   Overcast
2:53 AM 23.0 °F - 21.0 °F 92% 30.20 in 6.0 mi Calm Calm - N/A   Overcast
3:53 AM 23.0 °F 17.0 °F 21.0 °F 92% 30.20 in 6.0 mi South 4.6 mph - N/A   Overcast
4:53 AM 23.0 °F 15.8 °F 21.0 °F 92% 30.19 in 10.0 mi SSE 5.8 mph - N/A   Overcast
5:53 AM 24.1 °F 17.0 °F 21.0 °F 88% 30.19 in 10.0 mi SSE 5.8 mph - N/A   Overcast
6:53 AM 24.1 °F 17.0 °F 21.9 °F 91% 30.18 in 7.0 mi South 5.8 mph - N/A   Overcast
7:24 AM 24.8 °F 17.9 °F 21.2 °F 86% 30.14 in 1.8 mi SSE 5.8 mph - N/A   Overcast
7:40 AM 24.8 °F 19.1 °F 23.0 °F 93% 30.15 in 1.2 mi South 4.6 mph - N/A   Overcast
7:53 AM 24.1 °F 18.2 °F 23.0 °F 96% 30.19 in 1.0 mi South 4.6 mph - N/A   Overcast
8:12 AM 24.8 °F 19.1 °F 23.0 °F 93% 30.15 in 2.5 mi SSE 4.6 mph - N/A   Overcast
8:23 AM 24.8 °F 19.1 °F 23.0 °F 93% 30.16 in 3.0 mi SSE 4.6 mph - N/A   Overcast
8:34 AM 24.8 °F 17.9 °F 23.0 °F 93% 30.15 in 4.0 mi SSE 5.8 mph - N/A   Overcast
8:53 AM 25.0 °F 19.3 °F 23.0 °F 92% 30.19 in 5.0 mi SSE 4.6 mph - N/A   Overcast
9:53 AM 26.1 °F 20.5 °F 24.1 °F 92% 30.19 in 6.0 mi SE 4.6 mph - N/A   Overcast
10:00 AM 26.6 °F 20.0 °F 23.0 °F 86% 30.15 in 6.0 mi SE 5.8 mph - N/A   Overcast
10:16 AM 26.6 °F 20.0 °F 24.8 °F 93% 30.15 in 7.0 mi SSE 5.8 mph - N/A   Overcast
10:53 AM 28.0 °F 20.0 °F 24.1 °F 85% 30.19 in 8.0 mi South 8.1 mph - N/A   Overcast
11:00 AM 28.4 °F 20.4 °F 24.8 °F 86% 30.15 in 8.0 mi South 8.1 mph - N/A   Overcast
11:53 AM 28.9 °F 21.1 °F 25.0 °F 85% 30.17 in 10.0 mi South 8.1 mph - N/A   Overcast
12:53 PM 30.0 °F 22.4 °F 26.1 °F 85% 30.14 in 10.0 mi SW 8.1 mph - N/A   Overcast
1:53 PM 30.9 °F 24.3 °F 26.1 °F 82% 30.14 in 10.0 mi South 6.9 mph - N/A   Overcast
2:53 PM 30.9 °F 25.2 °F 26.1 °F 82% 30.11 in 10.0 mi South 5.8 mph - N/A   Overcast
3:53 PM 30.9 °F 24.3 °F 26.1 °F 82% 30.08 in 10.0 mi SSE 6.9 mph - N/A   Overcast
4:23 PM 32.0 °F 27.5 °F 26.6 °F 80% 30.04 in 10.0 mi South 4.6 mph - N/A   Overcast
4:53 PM 32.0 °F 28.7 °F 27.0 °F 82% 30.06 in 10.0 mi South 3.5 mph - N/A   Overcast
5:53 PM 32.0 °F 28.7 °F 27.0 °F 82% 30.07 in 10.0 mi SSW 3.5 mph - N/A   Overcast
6:53 PM 32.0 °F - 27.0 °F 82% 30.08 in 10.0 mi Calm Calm - N/A   Overcast
7:08 PM 32.0 °F 27.5 °F 26.6 °F 80% 30.05 in 10.0 mi WSW 4.6 mph - N/A   Overcast
7:53 PM 30.9 °F 26.2 °F 27.0 °F 85% 30.10 in 10.0 mi West 4.6 mph - N/A   Overcast
8:53 PM 30.9 °F 27.5 °F 27.0 °F 85% 30.13 in 10.0 mi WSW 3.5 mph - N/A   Overcast
9:46 PM 30.2 °F 26.7 °F 28.4 °F 93% 30.12 in 3.0 mi West 3.5 mph - N/A   Overcast
9:53 PM 30.0 °F - 28.9 °F 96% 30.16 in 3.0 mi Calm Calm - N/A   Overcast
10:17 PM 30.2 °F - 28.4 °F 93% 30.11 in 3.0 mi Calm Calm - N/A   Overcast
10:34 PM 30.2 °F - 28.4 °F 93% 30.11 in 3.0 mi Calm Calm - N/A   Overcast
10:53 PM 30.0 °F - 28.9 °F 96% 30.13 in 3.0 mi Calm Calm - N/A   Overcast
11:02 PM 30.2 °F - 28.4 °F 93% 30.10 in 2.5 mi Calm Calm - N/A   Overcast
11:09 PM 30.2 °F 26.7 °F 28.4 °F 93% 30.10 in 2.5 mi SSE 3.5 mph - N/A   Overcast
11:20 PM 30.2 °F 25.4 °F 28.4 °F 93% 30.09 in 2.5 mi SE 4.6 mph - N/A   Overcast
11:27 PM 30.2 °F 25.4 °F 28.4 °F 93% 30.09 in 3.0 mi SSE 4.6 mph - N/A   Overcast
11:41 PM 30.2 °F 26.7 °F 28.4 °F 93% 30.09 in 2.5 mi South 3.5 mph - N/A   Overcast
11:53 PM 30.0 °F - 28.9 °F 96% 30.14 in 2.5 mi Calm Calm - N/A   Overcast